Location: Goheenville
(40.9070°N, 79.3720°W)
Time: 15:44:30
(UTC-04:00)

Daily predictions for brighter satellites

Satellite Brightness Start Highest point End
(mag) Time Altitude Azimuth Time Altitude Azimuth Time Altitude Azimuth
ALOS 3.7 20:26:37 10° S 20:31:03 43° W 20:35:30 10° NNW
USA 267 3.3 20:25:17 10° SE 20:31:51 87° NE 20:38:27 10° NW
Cosmos 1553 Rocket 4.0 20:26:25 10° N 20:32:32 66° E 20:38:33 10° SSE
S3M 4.1 20:26:22 10° N 20:32:37 61° E 20:38:53 10° SSE
NOSS 2-3 (D) 3.8 20:28:36 10° SSW 20:33:10 66° ESE 20:38:27 10° NE
Meteor 1-13 Rocket 4.4 20:27:34 10° N 20:33:30 65° E 20:39:22 10° SSE
Cosmos 2266 Rocket 4.5 20:29:02 10° SSE 20:34:28 37° E 20:39:56 10° NNE
YAOGAN 6 4.4 20:36:08 10° ESE 20:38:17 16° ENE 20:40:27 10° NNE
Resurs 01 Rocket 1.7 20:37:52 10° SSE 20:42:17 67° ENE 20:46:43 10° N
Cosmos 2151 Rocket 3.5 20:38:53 10° S 20:43:16 85° E 20:47:41 10° N
Cosmos 2263 Rocket 2.3 20:40:09 10° NNW 20:45:50 65° ENE 20:51:28 10° SSE
Envisat 3.2 20:41:48 10° SSE 20:46:42 51° ENE 20:51:37 10° N
Abrixas 3.8 20:46:22 10° S 20:48:11 17° SE 20:49:11 14° ESE
Cosmos 1602 4.1 20:44:27 10° SSW 20:48:15 68° W 20:52:05 10° N
Cosmos 1741 Rocket 4.0 20:43:26 10° NNW 20:48:43 77° ENE 20:53:58 10° SSE
Cosmos 1844 Rocket 4.4 20:47:34 10° N 20:51:25 18° NE 20:55:09 10° E
Cosmos 1536 Rocket 3.5 20:47:05 10° N 20:51:26 81° E 20:55:47 10° S
Cosmos 2322 Rocket 2.5 20:47:08 10° SSW 20:52:49 76° WNW 20:58:32 10° NNE
Lacrosse 5 1.9 20:48:43 10° SW 20:53:48 87° SE 20:58:54 10° NE
Atlas Centaur 2 4.0 20:48:42 10° WSW 20:56:01 33° SSW 21:02:23 11° SE
ATLAS 2AS CENTAUR R/B 3.0 20:51:48 10° SSW 20:59:26 77° ESE 21:07:33 10° NE
Helios 1B rocket 3.4 21:02:14 10° NE 21:05:42 25° E 21:08:10 15° SE
SL-16 R/B 2.9 21:00:55 10° SW 21:06:30 59° WNW 21:12:07 10° NNE
SJ-11-01 4.4 21:03:16 10° SSE 21:07:44 54° ENE 21:12:17 10° N
H-2A R/B 4.0 21:06:16 10° E 21:08:01 12° ENE 21:09:47 10° NE
Cosmos 2219 Rocket 3.8 21:08:27 14° E 21:08:27 14° E 21:11:09 10° ENE
Meteor 1-11 Rocket 4.2 21:08:13 10° SSW 21:14:00 68° W 21:19:42 10° N
Cosmos 1110 Rocket 3.9 21:10:52 10° S 21:15:58 64° ESE 21:21:06 10° NNE
Cosmos 2322 3.7 21:14:22 10° S 21:19:54 59° ESE 21:25:29 10° NNE
Cosmos 1500 4.1 21:19:38 25° ESE 21:20:36 28° E 21:23:58 10° NNE
Delta 2 Rocket 3.9 21:17:03 10° WSW 21:20:43 39° S 21:22:33 25° ESE
SeaSat 1 2.4 21:17:04 10° NNE 21:21:59 65° ESE 21:26:52 10° SSW
Cosmos 2360 Rocket 2.1 21:18:28 10° SSW 21:24:06 79° ESE 21:29:44 10° NNE
Meteor 1-23 Rocket 4.2 21:20:15 10° N 21:25:51 90° W 21:31:27 10° S
Abrixas rocket 3.7 21:22:59 10° NW 21:25:54 29° NNE 21:27:31 19° ENE
Cosmos 405 4.1 21:27:09 27° E 21:27:09 27° E 21:30:01 10° NE
Cosmos 1331 Rocket 3.9 21:21:54 10° S 21:27:03 72° ESE 21:32:16 10° NNE
Okean 2 3.5 21:23:23 10° N 21:27:25 52° E 21:29:21 27° SE
OPS 6432 4.5 21:24:22 10° SSW 21:28:03 51° ESE 21:31:05 10° NE
Cosmos 482 Debris 4.0 21:25:37 10° SW 21:30:08 53° SE 21:31:11 35° E
Cosmos 1455 Rocket 4.3 21:32:44 23° E 21:32:44 23° E 21:36:04 10° NE
COSMOS 2428 3.1 21:27:42 10° S 21:33:02 41° ESE 21:38:22 10° NE
Cosmos 1975 3.7 21:33:35 29° E 21:33:36 29° E 21:37:05 10° NNE
CZ-4B DEB 2.8 21:42:43 49° NE 21:42:43 49° NE 21:45:14 10° N
MetOp-A 4.4 21:42:58 31° SE 21:45:08 49° ENE 21:50:17 10° N
NOAA 11 4.2 21:42:56 28° SE 21:45:46 63° ENE 21:51:12 10° N
Cosmos 2333 Rocket 3.4 21:47:12 23° E 21:47:12 23° E 21:50:30 10° NE
Cosmos 1025 Rocket 3.1 21:43:54 10° NNW 21:48:10 75° W 21:50:37 25° S
Cosmos 2333 4.2 21:45:56 10° S 21:51:26 53° ESE 21:56:53 10° NNE
Okean 1 Rocket 4.3 21:48:55 10° SSW 21:53:03 42° WNW 21:57:14 10° N
NOSS 3-2 (A) 4.3 21:46:34 10° NNW 21:53:52 53° NE 21:57:47 30° ESE
Cosmos 1939 Rocket 4.1 21:51:35 13° SSW 21:54:43 38° W 21:58:24 10° NNW
USA 238 DEB 3.7 21:50:20 10° NW 21:57:28 89° NE 22:01:04 33° SE
USA 238 3.7 21:50:26 10° NW 21:57:35 88° ENE 22:01:09 33° SE
Cosmos 2237 Rocket 4.0 22:00:25 15° ENE 22:00:25 15° ENE 22:01:44 10° NE
Tiangong 1 3.5 21:57:08 10° WSW 21:58:00 13° SW 21:58:00 13° SW
Cosmos 1244 Rocket 4.3 21:53:50 12° S 21:59:34 82° E 22:05:43 10° N
Cosmos 1437 Rocket 4.4 22:01:26 22° NE 22:01:26 22° NE 22:03:16 10° NNE
Helios 1A 3.6 22:01:07 27° SSW 22:03:11 54° W 22:07:21 10° NNW
ATLAS 3B R/B 2.7 22:00:18 10° NW 22:06:58 70° WSW 22:09:58 34° SSE
Cosmos 1238 Rocket 3.9 22:00:44 10° N 22:07:27 79° E 22:10:05 37° SSE
Cosmos 1818 3.4 22:02:43 10° SSW 22:08:08 81° ESE 22:13:36 10° NE
SL-8 R/B 3.6 22:03:37 10° WNW 22:08:26 81° SSW 22:09:13 61° SE
ERS-1 Rocket 2.9 22:06:57 44° SSE 22:08:37 88° ENE 22:13:40 10° NNW
SPOT 1/Viking Rocket 4.1 22:08:49 39° E 22:09:20 40° ENE 22:14:11 10° N
YAOGAN 6 4.3 22:10:08 21° SW 22:11:36 29° W 22:14:43 10° NW
Cosmos 1503 Rocket 4.4 22:07:30 10° N 22:12:42 47° ENE 22:13:20 45° E
SL-08 R/B 4.4 22:10:49 35° SSE 22:13:35 69° E 22:19:52 10° NNE
ARGOS 3.1 22:12:31 51° SE 22:13:48 72° ENE 22:19:10 10° N
Cosmos 1066 Rocket 4.0 22:08:33 10° N 22:14:01 80° E 22:15:33 49° SSE
SL-08 RB Rocket 3.8 22:15:40 58° ENE 22:15:42 58° ENE 22:20:10 10° N
Molniya-1 4.4 22:13:15 10° NW 22:15:39 58° NW 22:15:39 58° NW
Meteor 1-29 4.0 22:17:05 10° N 22:20:20 43° WNW 22:20:47 41° W
BREEZE-M DEB (TANK) 4.4 22:20:02 10° NW 22:20:55 13° NNW 22:20:55 13° NNW
BREEZE-M DEB (TANK) 4.4 22:22:18 10° W 22:26:12 50° N 22:39:59 10° ENE
YAOGAN 11 4.4 22:27:10 56° NE 22:27:10 56° NE 22:30:53 10° N
Cosmos 1743 4.1 22:29:25 32° NNE 22:29:25 32° NNE 22:31:35 10° NNE
Aureole 3 Rocket 4.2 22:21:25 10° N 22:29:24 77° W 22:31:40 41° S
USA 245 3.6 22:31:48 86° NW 22:31:48 86° NW 22:35:49 10° NNW
SPOT 5 2.7 22:31:51 83° ENE 22:31:51 83° ENE 22:36:28 10° NNW
NOSS 3-2 (C) 4.0 22:26:54 10° NNW 22:34:26 69° NE 22:36:46 48° ESE
Cosmos 1844 Rocket 2.7 22:30:15 10° NNW 22:35:56 75° WSW 22:36:49 62° S
Lacrosse 5 4.2 22:33:17 10° W 22:37:20 23° NNW 22:41:25 10° NNE
NOSS 0 Rocket 4.0 22:38:10 55° E 22:38:10 55° E 22:43:41 10° NNE
Cosmos 2278 Rocket 2.7 22:32:38 10° NNW 22:38:06 45° ENE 22:38:10 45° ENE
Cosmos 1626 Rocket 4.5 22:36:58 10° N 22:39:57 40° NNE 22:39:57 40° NNE
H-2A R/B 1.9 22:46:54 83° NW 22:46:54 83° NW 22:51:44 10° NNW
Meteor 1-21 4.1 22:41:19 10° N 22:46:52 72° ENE 22:46:52 72° ENE
Landsat 7 4.4 22:48:56 51° NNE 22:48:56 51° NNE 22:52:42 10° N
Cosmos 2219 Rocket 2.2 22:50:02 52° SW 22:51:27 76° WNW 22:57:08 10° NNE
Cosmos 1745 Rocket 4.0 22:50:53 50° SSW 22:52:30 73° W 22:58:41 10° N
Cosmos 968 Rocket 4.5 22:48:56 10° N 22:52:42 35° NE 22:52:42 35° NE
CENTAUR R/B 3.7 22:47:00 10° NNW 22:54:24 43° NE 22:56:35 37° E
Timation 1 Rocket 4.3 22:54:45 10° NNW 23:00:35 75° NE 23:00:35 75° NE
NOSS 3-4 (A) 3.5 22:56:26 19° SW 23:01:06 78° NW 23:07:37 10° NNE
NOSS 3-4 (C) 3.5 22:57:09 24° SW 23:01:13 79° NW 23:07:42 10° NNE
Terra 2.8 23:04:46 42° NNE 23:04:46 42° NNE 23:08:03 10° N
SL-16 R/B 4.3 23:11:39 16° NE 23:11:39 16° NE 23:12:50 10° NE
COSMOS 2428 4.4 23:12:22 10° WSW 23:17:23 30° NW 23:22:24 10° N
Cosmos 2333 Rocket 3.1 23:29:06 43° W 23:29:56 46° WNW 23:35:22 10° NNE
Cosmos 2237 Rocket 3.0 23:42:11 48° NNW 23:42:11 48° NNW 23:46:48 10° NNE
Cosmos 2369 Rocket 4.5 23:39:41 10° NNE 23:42:37 14° NE 23:42:41 14° NE
H-2A R/B 4.4 23:57:37 22° NNW 23:57:37 22° NNW 23:59:17 10° NNW
